User: anonymous   Login
Location: Pacheco
(37.9835°N, 122.0752°W)
Time: 18:48:24
(UTC+00:00)
Language:

SL-16 R/B - Orbit

View from above orbital plane
View from above orbital plane
View from above satellite
View from above satellite

Ground track
Ground track

The orbit data is extracted from the following two-line orbital elements,

1 28353U 04021B   24171.92201578  .00000113  00000-0  83743-4 0  9991
2 28353  71.0016 109.7514 0007350 272.3079  87.7202 14.14425782 34067
Epoch (UTC): 19 June 2024 22:07:42
Eccentricity: 0.0007350
inclination: 71.0016°
perigee height: 839 km
apogee height: 849 km
right ascension of ascending node: 109.7514°
argument of perigee: 272.3079°
revolutions per day: 14.14425782
mean anomaly at epoch: 87.7202°
orbit number at epoch: 3406

The dashed part of the orbit path shows where the satellite is in the earth's shadow,  

DLR